Regional Weather Roundup
Issued by NWS

Home | Current Version | Previous Version | Text Only | Print | Product List | Glossary Off
Versions: 1 2 3 4 5 6 7 8 9 10 11 12 13 14 15 16 17 18 19 20 21 22 23 24 25 26 27 28 29 30 31 32 33 34 35 36 37 38 39 40 41 42 43 44 45 46 47 48 49 50

000
ASUS43 KFSD 281502
RWRSD

WEATHER ROUNDUP FOR SOUTH DAKOTA
NATIONAL WEATHER SERVICE SIOUX FALLS SD
1000 AM CDT MON JUL 28 2014

NOTE: "FAIR" INDICATES FEW OR NO CLOUDS BELOW 12,000 FEET WITH NO
SIGNIFICANT WEATHER AND/OR OBSTRUCTIONS TO VISIBILITY.


SDZ001>005-009-010-012>017-281600-
NORTHWEST AND NORTH CENTRAL SOUTH DAKOTA

CITY           SKY/WX    TMP DP  RH WIND       PRES   REMARKS
BUFFALO          N/A     66  55  67 SE8       30.28F
FAITH            N/A     66  53  63 E5        30.34S
MOBRIDGE       SUNNY     63  56  78 VRB3      30.33S
$$

SDZ012>016-024>037-041>051-057-063-072>074-281600-
SOUTHWEST AND SOUTH CENTRAL SOUTH DAKOTA

CITY           SKY/WX    TMP DP  RH WIND       PRES   REMARKS
RAPID CTY ARPT SUNNY     66  57  72 SE10      30.35S
PIERRE         SUNNY     66  56  70 NW6       30.33S
CUSTER         SUNNY     66  49  54 VRB3      30.44S
ELLSWORTH AFB  SUNNY     68  55  62 S10       30.34S
PHILIP         SUNNY     68  53  58 E8        30.34S
PINE RIDGE     MOSUNNY   68  56  65 CALM      30.35S
WINNER         FAIR      67  52  58 CALM      30.34S
$$

SDZ004>011-016>023-039-040-281600-
NORTHEAST SOUTH DAKOTA

CITY           SKY/WX    TMP DP  RH WIND       PRES   REMARKS
ABERDEEN       MOSUNNY   65  56  72 NE9       30.32S
WATERTOWN      PTSUNNY   66  54  65 N14       30.29F
SISSETON         N/A     66  57  72 N10       30.28S
$$

SDZ017-020-022-023-036>040-048>070-281600-
SOUTHEAST SOUTH DAKOTA

CITY           SKY/WX    TMP DP  RH WIND       PRES   REMARKS
SIOUX FALLS    PTSUNNY   67  58  72 N14       30.28S
HURON          SUNNY     64  57  78 N10       30.30F
CHAMBERLAIN    MOSUNNY   65  54  68 N7        30.34R
MITCHELL       SUNNY     65  58  78 N10       30.31F
YANKTON        SUNNY     66  55  68 NW15      30.29S
$$

ABBREVIATIONS USED IN REMARKS
   TC - TEMPERATURE IN CELSIUS
  WCI - WIND CHILL INDEX
   HX - HEAT INDEX
  VSB - VISIBILITY



USA.gov is the U.S. government's official web portal to all federal, state and local government web resources and services.